"Pseudo-MPEC" for P22fXTu

Created 2025 Oct 14 6:35:12 UT using Find_Orb

Click here for an explanation of pseudo-MPECs

 
 Astrometry: 
     P22fXTu* C2025 09 30.40346302 34 22.459+27 57 40.41   ~9UBo 21.61wXNEOCPF52
     P22fXTu  C2025 09 30.41377402 34 22.827+27 57 34.07   ~9UBo 21.75wXNEOCPF52
     P22fXTu  C2025 09 30.42405702 34 23.198+27 57 27.84   ~9UBo 21.94wXNEOCPF52
     P22fXTu  C2025 09 30.43430302 34 23.565+27 57 21.36   ~9UBo 21.69wXNEOCPF52
     P22fXTu  C2025 09 30.51393702 34 26.350+27 56 31.80   ~9UK5 21.65GVNEOCPF52
     P22fXTu  C2025 09 30.51474402 34 26.373+27 56 31.40   ~9UK5 21.55GVNEOCPF52
     P22fXTu 1C2025 09 30.51786102 34 26.470+27 56 29.60   ~9UIo 21.73GVNEOCPT12
     P22fXTu 1C2025 09 30.51997102 34 26.542+27 56 28.29   ~9UIo 21.77GVNEOCPT12
     P22fXTu 1C2025 09 30.52185102 34 26.612+27 56 27.05   ~9UIo 21.79GVNEOCPT12
     P22fXTu KC2025 10 01.30270102 34 57.09 +27 47 58.9    ~A185 21.3 GVNEOCPH21
     P22fXTu KC2025 10 01.30848002 34 57.31 +27 47 54.9    ~A185 21.5 GVNEOCPH21
     P22fXTu KC2025 10 01.31339102 34 57.44 +27 47 52.0    ~A185 21.4 GVNEOCPH21
     P22fXTu |C2025 10 13.28775002 40 26.820+24 54 39.60   ~AD85 21.0 GVNEOCP807
     P22fXTu |C2025 10 13.29695002 40 26.930+24 54 29.50   ~AD85 21.0 GVNEOCP807
     P22fXTu |C2025 10 13.30616002 40 27.040+24 54 19.50   ~AD85 21.0 GVNEOCP807
     P22fXTu  C2025 10 13.56300102 40 31.261+24 49 31.45   ~ADHo 20.94wXNEOCPF51
     P22fXTu  C2025 10 13.57724202 40 31.415+24 49 15.84   ~ADHo 20.88wXNEOCPF51
     P22fXTu  C2025 10 13.59148002 40 31.616+24 49 00.06   ~ADHo 21.20wXNEOCPF51
     P22fXTu |C2025 10 14.22438002 40 42.370+24 37 33.60   ~AE6K 21.0 GVNEOCP807
     P22fXTu |C2025 10 14.22991002 40 42.430+24 37 27.50   ~AE6K 20.8 GVNEOCP807
     P22fXTu |C2025 10 14.23543002 40 42.480+24 37 21.20   ~AE6K 21.0 GVNEOCP807

Station data:
(807) Cerro Tololo Observatory, La Serena  (S30.169133 W70.805900)  Chile.
   Observer R. Holmes. 0.61-m f/6.5 astrograph + CCD.
(F51) Pan-STARRS 1, Haleakala  (N20.707234 W156.255910)  US/Hawaii.
   Observers J. Herman, T. Lowe, P. Minguez, A. Schultz, I. Smith. Measurers
   K. Chambers, T. de Boer, J. Fairlamb, H. Gao, M. Huber, C.-C. Lin, E.
   Magnier, Y. Ramanjooloo, R. Wainscoat, R. Weryk. 1.8-m Ritchey-Chrétien +
   CCD.
(F52) Pan-STARRS 2, Haleakala  (N20.707382 W156.255910)  US/Hawaii.
   Observers J. Herman, T. Lowe, P. Minguez, A. Schultz, I. Smith. Measurers
   K. Chambers, T. de Boer, J. Fairlamb, H. Gao, M. Huber, C.-C. Lin, E.
   Magnier, Y. Ramanjooloo, R. Wainscoat, R. Weryk. 1.8-m Ritchey-Chrétien +
   CCD.
(H21) Astronomical Research Observatory, Westfield  (N39.483054 W87.968270)
   US/Illinois.  Observer R. Holmes. Measurers S. Foglia, L. Buzzi, T.
   Linder, R. Holmes. 0.40-m f/5.32 astrograph + CCD.
(T12) Mauna Kea-UH/Tholen NEO Follow-Up (2.24-m)  (N19.822991 W155.469434)
   US/Hawaii.  Observer R. Weryk. 2.24-m f/10.1 University of Hawaii
   reflector.

Orbital elements:  P22fXTu
   Perihelion 2025 Nov 20.384309 +/- 0.292 TT =  9:13:24.3 (JD 2460999.884309)
Epoch 2025 Oct 14.0 TT = JDT 2460962.5   Earth MOID: 0.6359   Ju: 0.8499
M 353.222154225 +/- 0.054           (J2000 ecliptic)             AutoNEOCP
n   0.181301885 +/- 0.000743        Peri.  188.359458 +/- 0.17
a   3.091727213 +/- 0.00844         Node   223.154710 +/- 0.008
e   0.47456616 +/- 0.00115          Incl.   16.580437 +/- 0.028
P   5.43628                H 20.01  G  0.15   U  7.9
q 1.624498080 +/- 0.001    Q 4.558956346 +/- 0.016
From 21 observations 2025 Sept. 30-Oct. 14; mean residual 0".11
Residuals in arcseconds: 
250930 F52  .02-  .02+    250930 T12  .02-  .04+    251013 807  .24-  .06-    
250930 F52  .06-  .04-    250930 T12  .04+  .01-    251013 F51  .07+  .08-    
250930 F52  .01-  .02+    251001 H21  .07-  .04+    251013 F51  .16-  .05+    
250930 F52  .03+  .17-    251001 H21  .23+  .16-    251013 F51  .21+  .04+    
250930 F52  .06+  .10-    251001 H21  .26-  .17+    251014 807  .10-  .05+    
250930 F52  .01-  .01+    251013 807  .15-  .00     251014 807  .08-  .08+    
250930 T12  .01-  .01+    251013 807  .19-  .10-    251014 807  .19-  .09-    

Ephemerides (geocentric):
Date (UTC) HH   RA             Dec           delta  r     elong  mag " sig PA
---- --------  ------------   ------------  ------ ------ -----  --- --------
2025 10 14 07  02 40 43.314   +24 36 08.53  .70496 1.6604 154.1 21.2 .159  70
2025 10 14 08  02 40 43.954   +24 35 22.08  .70474 1.6604 154.1 21.2 .169  70
2025 10 14 09  02 40 44.591   +24 34 35.57  .70452 1.6603 154.2 21.2 .180  70
2025 10 14 10  02 40 45.225   +24 33 49.00  .70430 1.6602 154.2 21.2 .190  70
2025 10 14 11  02 40 45.856   +24 33 02.37  .70409 1.6601 154.3 21.2 .201  70
2025 10 14 12  02 40 46.485   +24 32 15.68  .70387 1.6600 154.3 21.2 .212  70
2025 10 14 13  02 40 47.110   +24 31 28.93  .70365 1.6600 154.4 21.2 .222  71
2025 10 14 14  02 40 47.733   +24 30 42.13  .70343 1.6599 154.4 21.2 .233  71
2025 10 14 15  02 40 48.353   +24 29 55.26  .70322 1.6598 154.5 21.2 .244  71
2025 10 14 16  02 40 48.970   +24 29 08.34  .70300 1.6597 154.5 21.2 .255  71
2025 10 14 17  02 40 49.584   +24 28 21.35  .70279 1.6596 154.5 21.2 .266  71
2025 10 14 18  02 40 50.195   +24 27 34.31  .70257 1.6596 154.6 21.2 .277  71
2025 10 14 19  02 40 50.804   +24 26 47.20  .70236 1.6595 154.6 21.2 .288  71
2025 10 14 20  02 40 51.410   +24 26 00.04  .70214 1.6594 154.7 21.2 .300  71
2025 10 14 21  02 40 52.012   +24 25 12.82  .70193 1.6593 154.7 21.2 .311  71
2025 10 14 22  02 40 52.612   +24 24 25.54  .70171 1.6593 154.8 21.2 .322  71
2025 10 14 23  02 40 53.210   +24 23 38.20  .70150 1.6592 154.8 21.2 .333  71
2025 10 15 00  02 40 53.804   +24 22 50.80  .70128 1.6591 154.9 21.2 .345  71
2025 10 15 01  02 40 54.396   +24 22 03.34  .70107 1.6590 154.9 21.2 .356  71
2025 10 15 02  02 40 54.985   +24 21 15.82  .70086 1.6589 154.9 21.2 .368  72
2025 10 15 03  02 40 55.571   +24 20 28.25  .70065 1.6589 155.0 21.2 .379  72
2025 10 15 04  02 40 56.154   +24 19 40.61  .70043 1.6588 155.0 21.2 .391  72
2025 10 15 05  02 40 56.734   +24 18 52.92  .70022 1.6587 155.1 21.2 .403  72
2025 10 15 06  02 40 57.312   +24 18 05.16  .70001 1.6586 155.1 21.2 .414  72
2025 10 15 07  02 40 57.887   +24 17 17.35  .69980 1.6586 155.2 21.2 .426  72
2025 10 15 08  02 40 58.459   +24 16 29.48  .69959 1.6585 155.2 21.2 .438  72
2025 10 15 09  02 40 59.028   +24 15 41.55  .69938 1.6584 155.3 21.2 .450  72
2025 10 15 10  02 40 59.594   +24 14 53.57  .69917 1.6583 155.3 21.2 .462  72
2025 10 15 11  02 41 00.158   +24 14 05.52  .69896 1.6582 155.4 21.2 .474  72
2025 10 15 12  02 41 00.719   +24 13 17.41  .69875 1.6582 155.4 21.1 .486  72
2025 10 15 13  02 41 01.277   +24 12 29.25  .69854 1.6581 155.4 21.1 .498  72
2025 10 15 14  02 41 01.832   +24 11 41.03  .69833 1.6580 155.5 21.1 .510  72
2025 10 15 15  02 41 02.385   +24 10 52.75  .69812 1.6579 155.5 21.1 .522  72
2025 10 15 16  02 41 02.935   +24 10 04.41  .69791 1.6579 155.6 21.1 .534  72
2025 10 15 17  02 41 03.482   +24 09 16.01  .69770 1.6578 155.6 21.1 .547  72
2025 10 15 18  02 41 04.026   +24 08 27.55  .69750 1.6577 155.7 21.1 .559  72
2025 10 15 19  02 41 04.568   +24 07 39.04  .69729 1.6576 155.7 21.1 .572  72
2025 10 15 20  02 41 05.107   +24 06 50.47  .69708 1.6576 155.8 21.1 .584  72
2025 10 15 21  02 41 05.643   +24 06 01.84  .69687 1.6575 155.8 21.1 .597  72
2025 10 15 22  02 41 06.176   +24 05 13.15  .69667 1.6574 155.8 21.1 .609  72
2025 10 15 23  02 41 06.707   +24 04 24.40  .69646 1.6573 155.9 21.1 .622  73
2025 10 16 00  02 41 07.234   +24 03 35.60  .69626 1.6573 155.9 21.1 .634  73
2025 10 16 01  02 41 07.759   +24 02 46.73  .69605 1.6572 156.0 21.1 .647  73
2025 10 16 02  02 41 08.282   +24 01 57.81  .69585 1.6571 156.0 21.1 .660  73
2025 10 16 03  02 41 08.801   +24 01 08.83  .69564 1.6570 156.1 21.1 .673  73
2025 10 16 04  02 41 09.318   +24 00 19.79  .69544 1.6569 156.1 21.1 .686  73
2025 10 16 05  02 41 09.832   +23 59 30.70  .69523 1.6569 156.2 21.1 .698  73
2025 10 16 06  02 41 10.344   +23 58 41.54  .69503 1.6568 156.2 21.1 .711  73